Weather History for Clermont Ferrand, France

Change the Weather History Date:

Sunday, October 28, 2012

  Actual Average Record
Temperature  
Mean Temperature 38 °F -  
Max Temperature 43 °F 51 °F 75 °F (2000)
Min Temperature 33 °F 37 °F 26 °F (1997)
Degree Days  
Heating Degree Days 27    
Moisture  
Dew Point 26 °F    
Average Humidity 64    
Maximum Humidity 81    
Minimum Humidity 43    
Precipitation  
Precipitation 0.00 in - - ()
Sea Level Pressure  
Sea Level Pressure 29.93 in    
Wind  
Wind Speed 12 mph ()    
Max Wind Speed 21 mph    
Max Gust Speed 33 mph    
Visibility 6.4 miles    
Events      
Averages and records for this station are not official NWS values.
T = Trace of Precipitation, MM = Missing Value Source: Averaged Metar Reports

Daily Weather History Graph

Daily Weather History Graph

Search for Another Location

Airport:

Trip Planner

Search our weather history database for the weather conditions in past years. The results will help you decide how hot, cold, wet, or windy it might be!

Date:

Astronomy

Oct. 28, 2012 Rise Set
Actual Time 7:22 AM CET 5:39 PM CET
Civil Twilight 6:51 AM CET 6:10 PM CET
Nautical Twilight 6:16 AM CET 6:45 PM CET
Astronomical Twilight 5:41 AM CET 7:19 PM CET
Moon 4:49 PM CET (10/28) 5:58 AM CET (10/28)
Length of Visible Light 11h 18m
Length of Day
10h 17m
Waxing Gibbous, 98% of the Moon is Illuminated
Oct 28
Waxing Gibbous
Oct 29
Full
Nov 7
Last Quarter
Nov 13
New
Nov 20
First Quarter

Hourly Weather History & Observations

Time (CET) Temp. Windchill Dew Point Humidity Pressure Visibility Wind Dir Wind Speed Gust Speed Precip Events Conditions
12:00 AM 35.6 °F 26.2 °F 30.2 °F 81% 29.83 in 6.2 mi NNW 15.0 mph - N/A   Partly Cloudy
12:30 AM 35.6 °F 27.1 °F 28.4 °F 75% 29.83 in 6.2 mi NNW 12.7 mph - N/A   Partly Cloudy
1:00 AM 35.6 °F 27.1 °F 26.6 °F 70% 29.83 in 6.2 mi NNW 12.7 mph - N/A   Partly Cloudy
1:30 AM 33.8 °F 23.5 °F 24.8 °F 70% 29.86 in 6.2 mi NNW 16.1 mph - N/A   Partly Cloudy
2:00 AM 34 °F - 25 °F 59% 29.91 in 16 mi NNW 12.7 mph - -   Partly Cloudy
2:00 AM 33.8 °F 24.8 °F 24.8 °F 70% 29.86 in 6.2 mi NNW 12.7 mph - N/A   Partly Cloudy
2:30 AM 33.8 °F 24.3 °F 24.8 °F 70% 29.83 in 6.2 mi NNW 13.8 mph - N/A   Partly Cloudy
2:00 AM 33.8 °F 23.9 °F 24.8 °F 70% 29.83 in 6.2 mi NNW 15.0 mph - N/A   Unknown
2:30 AM 33.8 °F 24.3 °F 23.0 °F 65% 29.86 in 6.2 mi NNW 13.8 mph - N/A   Unknown
3:00 AM 33.8 °F 25.3 °F 24.8 °F 70% 29.86 in 6.2 mi NNW 11.5 mph - N/A   Unknown
3:30 AM 33.8 °F 24.8 °F 24.8 °F 70% 29.86 in 6.2 mi NNW 12.7 mph - N/A   Unknown
4:00 AM 33.8 °F 24.8 °F 24.8 °F 70% 29.86 in 6.2 mi NNW 12.7 mph - N/A   Partly Cloudy
4:30 AM 33.8 °F 25.3 °F 24.8 °F 70% 29.86 in 6.2 mi NNW 11.5 mph - N/A   Partly Cloudy
5:00 AM 33.8 °F 24.8 °F 24.8 °F 70% 29.86 in 6.2 mi NNW 12.7 mph - N/A   Partly Cloudy
5:30 AM 33.8 °F 25.3 °F 24.8 °F 70% 29.86 in 6.2 mi NNW 11.5 mph 24.2 mph N/A   Partly Cloudy
6:00 AM 33.8 °F 25.3 °F 24.8 °F 70% 29.86 in 6.2 mi NNW 11.5 mph 25.3 mph N/A   Partly Cloudy
6:30 AM 33.8 °F 24.8 °F 26.6 °F 75% 29.89 in 6.2 mi NNW 12.7 mph - N/A   Partly Cloudy
7:00 AM 33.8 °F 24.3 °F 26.6 °F 75% 29.89 in 6.2 mi NNW 13.8 mph - N/A   Partly Cloudy
7:30 AM 33.8 °F 24.3 °F 26.6 °F 75% 29.89 in 6.2 mi NNW 13.8 mph - N/A   Partly Cloudy
8:00 AM 33.8 °F 25.3 °F 26.6 °F 75% 29.89 in 6.2 mi North 11.5 mph - N/A   Scattered Clouds
8:30 AM 33.8 °F 25.3 °F 26.6 °F 75% 29.92 in 6.2 mi North 11.5 mph - N/A   Scattered Clouds
9:00 AM 33.8 °F 25.3 °F 26.6 °F 75% 29.92 in 6.2 mi North 11.5 mph - N/A   Scattered Clouds
9:30 AM 35.6 °F 27.1 °F 26.6 °F 70% 29.92 in 6.2 mi North 12.7 mph - N/A   Mostly Cloudy
10:00 AM 35.6 °F 25.2 °F 26.6 °F 70% 29.95 in 6.2 mi North 18.4 mph - N/A   Mostly Cloudy
10:30 AM 37.4 °F 28.2 °F 24.8 °F 60% 29.95 in 6.2 mi North 16.1 mph - N/A   Scattered Clouds
11:30 AM 39.2 °F 29.6 °F 24.8 °F 56% 29.95 in 6.2 mi North 19.6 mph - N/A   Scattered Clouds
12:00 PM 39.2 °F 29.6 °F 26.6 °F 61% 29.95 in 6.2 mi North 19.6 mph 33.4 mph N/A   Scattered Clouds
12:30 PM 39.2 °F 29.6 °F 26.6 °F 61% 29.95 in 6.2 mi North 19.6 mph 32.2 mph N/A   Mostly Cloudy
1:00 PM 41 °F - 26 °F 43% 29.98 in 28 mi North 18.4 mph - -   Clear
1:00 PM 41.0 °F 31.9 °F 26.6 °F 57% 29.92 in 6.2 mi North 19.6 mph 32.2 mph N/A   Mostly Cloudy
1:30 PM 42.8 °F 34.0 °F 26.6 °F 53% 29.92 in 6.2 mi North 20.7 mph - N/A   Mostly Cloudy
2:00 PM 42.8 °F 34.3 °F 26.6 °F 53% 29.92 in 6.2 mi North 19.6 mph - N/A   Mostly Cloudy
2:30 PM 42.8 °F 34.0 °F 26.6 °F 53% 29.92 in 6.2 mi North 20.7 mph - N/A   Mostly Cloudy
3:00 PM 42.8 °F 35.1 °F 26.6 °F 53% 29.92 in 6.2 mi North 16.1 mph 27.6 mph N/A   Scattered Clouds
3:30 PM 42.8 °F 34.5 °F 24.8 °F 49% 29.92 in 6.2 mi North 18.4 mph 31.1 mph N/A   Scattered Clouds
4:00 PM 42.8 °F 34.8 °F 24.8 °F 49% 29.95 in 6.2 mi North 17.3 mph - N/A   Scattered Clouds
4:30 PM 42.8 °F 35.4 °F 24.8 °F 49% 29.95 in 6.2 mi North 15.0 mph 28.8 mph N/A   Scattered Clouds
5:00 PM 42.8 °F 35.1 °F 24.8 °F 49% 29.95 in 6.2 mi North 16.1 mph - N/A   Scattered Clouds
5:30 PM 41.0 °F 34.7 °F 24.8 °F 53% 29.98 in 6.2 mi North 10.4 mph - N/A   Scattered Clouds
6:00 PM 39.2 °F 33.0 °F 24.8 °F 56% 29.98 in 6.2 mi North 9.2 mph - N/A   Partly Cloudy
6:30 PM 39.2 °F 34.2 °F 24.8 °F 56% 30.01 in 6.2 mi North 6.9 mph - N/A   Partly Cloudy
7:00 PM 38 °F - 24 °F 46% 30.06 in 31 mi NNW 4.6 mph - -  
7:00 PM 39.2 °F 35.9 °F 24.8 °F 56% 30.01 in - NNW 4.6 mph - N/A   Clear
7:30 PM 37.4 °F 33.8 °F 24.8 °F 60% 30.04 in - NNW 4.6 mph - N/A   Clear
8:00 PM 35.6 °F 30.7 °F 24.8 °F 65% 30.04 in - NW 5.8 mph - N/A   Clear
8:30 PM 37.4 °F 32.8 °F 26.6 °F 65% 30.04 in - NNW 5.8 mph - N/A   Clear
9:00 PM 35.6 °F 31.7 °F 26.6 °F 70% 30.04 in - NNW 4.6 mph - N/A   Clear
9:30 PM 35.6 °F 31.7 °F 26.6 °F 70% 30.04 in - NNW 4.6 mph - N/A   Clear
10:00 PM 35.6 °F 32.8 °F 24.8 °F 65% 30.04 in - NNW 3.5 mph - N/A   Clear
10:30 PM 35.6 °F - 24.8 °F 65% 30.06 in - NE 2.3 mph - N/A   Clear